Wind_Speed
15 15 15 15 15 14 14 13 13 13 13 13 13 12 11 11 10 9 9 10 10 10 10 9 8 8 8 8 9 9 9 9 9 9 10 10 11 11 11 11 12 12 12 12 12 12 12 12 12 12 12 12 12 11 11 11 12 12 13 13 14 15 15 16 16 16 16 18 18 19 19 19 19 19 19 18 19 20 19 19 20 20 20 20 19
16 15 16 16 15 14 14 14 13 13 12 12 12 12 11 11 11 10 9 10 10 11 11 10 10 9 9 9 9 9 9 9 9 9 9 9 9 10 10 11 11 11 12 13 13 13 12 12 13 13 13 13 13 12 12 12 12 12 13 13 13 15 15 16 16 16 16 17 17 18 18 18 19 19 19 19 20 20 19 19 19 19 19 18 18
17 16 16 15 15 15 15 15 14 14 13 13 12 12 12 11 11 10 10 11 11 11 11 11 11 10 10 10 10 9 9 9 9 9 9 9 9 9 9 9 9 10 10 11 11 11 11 12 12 12 13 13 13 13 13 13 13 13 14 14 15 16 17 17 17 18 18 17 17 17 18 18 19 19 20 20 20 20 20 20 18 18 18 18 17
17 17 17 16 16 15 15 15 15 15 15 14 13 12 12 13 12 11 11 12 12 11 11 11 11 11 11 11 11 10 10 10 9 9 9 9 9 9 9 9 9 9 9 9 10 10 10 11 11 11 12 13 13 14 14 14 14 15 15 15 16 16 17 17 18 18 18 17 17 17 18 18 19 19 19 20 20 20 20 19 19 19 18 17 16
18 18 19 18 18 16 15 15 16 15 15 15 15 14 14 14 13 12 12 13 12 12 12 11 11 11 12 11 11 11 11 11 10 10 10 9 9 9 9 9 9 9 9 9 9 9 10 10 11 11 12 12 13 13 13 14 14 14 15 15 15 16 16 16 17 18 18 18 18 18 18 18 18 18 18 19 19 19 19 19 19 18 18 16 16
19 19 20 20 20 19 17 17 16 16 16 16 15 15 15 15 14 13 13 13 13 13 12 12 12 12 12 12 12 12 12 12 12 11 11 10 9 9 9 9 9 9 9 9 9 9 9 10 10 11 11 11 12 12 13 13 13 14 14 14 15 15 16 16 17 17 18 18 18 18 18 18 17 18 18 18 17 17 18 18 17 17 18 18 17
20 20 20 20 21 21 20 19 18 18 17 17 17 16 16 16 15 14 14 13 13 13 13 14 14 14 13 13 13 13 13 13 13 12 12 12 11 11 10 10 9 10 9 9 9 9 9 10 10 11 11 11 11 12 13 13 13 13 13 13 14 14 15 15 16 16 16 17 17 17 17 17 17 17 17 17 17 17 17 18 17 18 19 19 19
22 21 21 21 21 21 21 21 21 20 20 19 19 19 18 18 17 17 16 14 14 14 14 14 15 15 15 14 14 14 14 14 14 14 13 14 14 13 12 11 10 11 11 10 10 10 10 10 11 12 12 11 11 12 13 13 13 13 13 13 13 13 13 14 14 15 15 16 16 16 16 17 17 17 18 18 17 17 18 19 19 19 20 21 21
25 24 23 23 22 21 22 22 22 22 22 21 21 21 20 20 19 19 18 17 15 15 15 15 16 16 16 16 14 14 14 15 15 15 14 15 15 14 14 14 12 11 11 11 10 10 11 11 12 13 13 12 12 13 14 14 14 14 14 14 14 14 14 14 14 15 15 15 16 16 17 17 17 16 17 17 18 19 20 20 20 20 22 23 23
29 28 27 26 25 24 24 24 23 23 23 22 22 23 23 22 21 20 20 19 17 17 17 17 17 17 18 17 15 14 15 16 16 15 14 14 15 15 15 14 12 11 11 11 11 11 11 12 13 14 14 14 15 15 15 15 15 15 15 15 16 16 15 16 16 16 17 17 18 18 18 18 17 17 17 19 20 21 22 23 23 23 24 24 23
33 32 31 30 29 28 27 26 25 24 24 24 24 24 24 23 23 22 22 21 20 19 19 19 19 18 18 17 16 16 18 18 18 17 15 14 15 15 15 13 12 12 12 12 12 12 12 13 13 15 16 16 16 16 16 15 16 16 16 16 17 17 17 18 18 19 19 20 20 21 21 20 20 20 20 20 21 22 24 25 26 26 26 26 25
37 35 34 34 33 32 32 30 28 27 26 27 27 26 25 24 24 24 23 22 22 21 21 21 21 21 20 19 18 19 21 20 19 19 17 16 16 16 15 14 14 15 14 13 14 14 13 14 14 15 17 16 15 15 14 14 15 16 17 18 18 18 19 19 20 20 21 22 23 22 22 22 23 23 22 22 23 24 25 26 26 27 27 28 29
40 39 38 38 37 36 36 35 33 31 30 30 29 27 26 25 25 25 25 24 24 23 23 22 22 22 22 21 21 23 23 21 19 19 19 19 19 17 17 16 16 17 16 16 16 16 15 16 16 16 18 19 18 18 16 16 17 18 19 19 19 19 20 20 21 21 22 23 23 23 22 22 23 23 22 23 24 24 25 26 27 28 29 30 30
41 40 40 40 39 39 39 39 38 37 35 33 31 28 28 27 26 25 26 25 25 25 25 24 24 23 23 24 26 27 25 22 21 21 20 20 20 19 19 18 18 19 18 18 19 19 18 18 18 17 19 20 21 21 20 20 20 19 20 20 20 20 21 22 22 23 23 23 23 23 22 21 22 22 22 23 25 26 27 29 30 31 31 31 31
41 41 40 40 40 39 41 40 39 37 36 35 33 32 31 30 28 27 27 27 27 27 26 26 26 25 24 26 28 27 25 24 24 23 22 23 22 22 21 20 20 20 19 20 22 22 21 20 20 21 22 22 22 22 22 23 23 22 22 22 22 22 22 22 23 23 23 23 24 24 23 22 23 24 25 26 28 30 31 32 33 33 33 33 31
40 41 41 41 40 39 39 39 38 37 37 36 36 35 35 33 32 30 29 30 30 30 29 29 29 28 27 29 30 27 24 24 24 23 23 23 23 24 23 22 23 22 21 23 25 23 21 21 23 23 23 23 23 22 22 23 23 24 24 23 23 23 22 22 23 23 23 23 25 26 26 26 27 28 29 30 32 33 34 34 34 33 34 34 32
37 38 39 38 38 37 37 36 36 35 36 36 37 36 36 36 35 34 33 32 33 33 34 34 32 29 29 30 29 26 24 24 24 23 24 24 23 24 24 24 25 25 24 26 27 25 23 23 24 24 23 23 24 23 22 22 22 23 23 23 23 23 24 24 25 26 26 26 26 27 27 28 29 30 31 32 33 35 35 36 36 36 36 35 33
33 34 34 34 34 35 34 33 32 32 34 36 36 36 36 36 35 36 36 36 36 37 37 35 31 29 29 29 28 26 25 25 26 25 24 24 24 24 25 26 26 26 25 26 27 28 27 27 27 26 24 23 23 22 21 22 22 23 24 24 25 25 26 26 26 26 27 28 28 28 28 29 30 31 33 33 34 35 36 37 38 38 37 35 34
33 32 30 30 31 32 32 31 30 31 32 34 34 34 34 33 31 32 34 35 37 39 39 36 32 30 28 26 25 24 24 24 25 26 25 24 24 24 26 26 26 26 26 28 29 29 29 29 29 28 26 24 23 22 23 23 24 25 26 27 28 28 28 27 27 28 28 29 30 30 31 31 32 32 34 34 34 34 35 35 34 33 32 31 31
33 32 30 29 28 29 30 30 29 28 29 29 30 30 29 28 25 25 27 29 31 35 38 36 33 30 28 26 23 24 25 25 24 24 24 24 25 25 26 27 27 29 30 31 30 30 30 31 31 29 25 23 23 24 25 25 26 27 28 29 30 29 29 28 27 28 29 29 30 31 32 33 33 32 33 33 32 32 32 32 31 30 29 29 29
29 30 29 27 26 26 27 26 25 25 25 25 24 23 23 22 21 21 22 22 24 27 29 31 32 31 30 28 25 24 25 27 27 26 25 24 24 25 27 27 28 30 31 30 30 31 32 32 30 27 24 22 23 25 26 26 27 28 29 29 29 29 28 27 27 28 29 30 31 32 33 34 33 32 32 32 32 33 33 33 33 32 30 29 29
24 25 26 25 25 25 26 25 23 22 22 22 21 20 20 19 18 18 18 19 23 23 22 25 28 30 31 30 27 25 26 27 28 28 27 25 24 25 26 26 27 28 28 28 28 30 31 30 27 26 24 23 22 23 24 25 26 27 28 28 29 29 29 29 29 29 29 30 31 32 33 34 34 33 33 33 33 33 33 33 33 33 31 29 29
22 22 22 22 23 25 25 24 23 22 21 20 19 19 19 18 17 16 14 16 20 23 24 24 25 25 26 29 29 27 27 27 27 28 27 25 22 21 22 23 24 24 24 24 25 25 25 24 23 23 23 22 22 22 23 23 25 26 28 29 30 30 30 30 30 29 29 29 29 30 30 31 31 31 30 30 30 29 29 29 29 30 30 28 27
21 21 20 19 19 19 19 19 19 19 20 18 18 19 19 18 17 16 14 14 15 18 22 25 24 22 23 26 26 25 25 24 23 23 24 22 20 19 21 22 23 23 23 23 22 21 20 19 18 17 18 19 19 20 20 21 21 23 25 26 27 27 26 26 26 25 25 25 25 25 25 25 26 27 26 26 26 26 26 27 27 27 27 27 26
18 18 18 19 18 17 16 17 17 18 18 18 19 20 21 20 19 17 16 15 15 15 18 21 22 20 19 19 19 20 20 20 20 21 23 24 23 23 22 21 20 20 19 17 16 16 16 15 15 15 15 16 18 18 19 20 20 21 22 23 24 23 23 23 23 23 23 24 24 24 24 24 25 25 26 25 25 25 25 26 26 26 26 26 25
14 13 13 15 18 17 16 16 17 18 18 19 22 23 22 21 19 17 16 16 16 16 18 20 21 21 20 19 20 21 22 22 22 22 21 20 19 18 16 14 13 12 12 12 13 14 15 15 16 17 18 19 20 21 21 22 22 22 23 24 25 24 24 24 25 25 25 26 26 27 27 27 27 27 27 27 27 27 27 27 27 27 27 27 26
12 10 10 11 14 15 14 13 13 15 16 17 19 21 20 18 17 16 16 15 15 15 16 16 16 17 18 18 19 19 18 16 16 15 12 11 11 12 11 11 11 12 13 14 15 16 17 18 19 20 21 22 22 23 23 23 24 25 25 26 26 25 25 25 26 26 27 27 27 28 28 28 29 29 29 29 29 29 29 30 30 29 29 29 28
12 12 12 12 12 13 13 12 13 13 13 13 14 15 15 14 14 14 14 13 12 13 14 12 12 12 12 12 12 12 11 11 11 11 11 11 12 12 12 13 13 14 15 16 17 19 19 20 21 21 22 23 23 24 24 23 24 24 24 25 26 25 24 25 25 26 27 27 27 28 28 28 28 28 29 29 29 29 30 30 30 31 31 31 31
15 14 14 14 13 13 14 14 14 14 13 12 13 13 13 13 13 13 12 12 11 13 13 12 12 12 11 11 11 11 11 11 12 12 12 13 13 13 14 15 15 16 18 18 19 20 21 21 21 21 22 22 22 22 23 22 22 23 22 22 23 23 23 23 23 24 25 25 25 25 26 26 26 26 27 27 27 28 28 29 29 30 30 30 31
17 16 16 15 14 14 15 15 15 14 14 14 15 14 14 14 14 13 13 13 13 13 14 14 13 13 13 12 13 12 12 13 13 13 13 14 14 15 15 16 17 18 19 20 20 21 21 21 21 21 21 21 20 20 21 21 21 21 21 20 21 21 21 21 21 22 22 23 23 24 24 24 24 25 25 26 25 26 26 27 27 28 28 28 29
16 16 16 16 16 16 16 15 15 15 15 15 15 15 15 15 15 14 13 13 13 13 13 14 14 14 14 14 13 13 13 13 13 13 14 15 16 16 17 18 19 20 20 21 21 21 21 21 21 20 20 20 20 19 20 20 20 20 21 21 21 21 21 21 21 22 22 23 24 24 24 25 25 26 26 27 27 27 27 28 28 29 29 29 29
15 16 16 16 17 17 17 17 17 16 16 16 16 15 15 15 14 14 14 14 14 14 14 14 14 14 14 14 14 14 14 14 15 15 16 16 17 18 18 19 20 20 21 21 21 21 21 21 20 20 20 20 19 20 20 21 21 21 22 23 23 23 23 23 24 24 24 24 25 25 25 26 26 27 28 28 29 29 29 30 30 30 30 31 31
15 15 15 16 17 18 18 18 18 17 17 17 17 17 16 16 16 15 15 15 15 15 15 15 15 15 15 15 16 16 16 16 17 17 18 18 19 19 19 19 20 20 20 20 20 20 20 20 20 20 20 20 21 21 22 22 23 23 24 24 25 25 25 26 26 26 26 27 27 27 27 27 28 28 29 29 30 31 31 32 32 32 33 33 33
15 15 15 16 17 17 17 18 18 18 18 18 18 18 18 17 17 17 17 17 17 16 16 16 16 16 16 16 16 17 17 17 17 18 18 19 19 19 19 18 18 18 18 19 19 19 20 20 20 21 22 22 23 23 24 24 24 25 25 25 26 26 26 27 27 27 28 29 29 29 30 30 30 31 31 31 32 32 33 33 34 34 35 35 35
15 15 16 17 18 17 18 18 19 19 19 19 19 19 18 18 17 17 18 18 18 17 17 16 17 17 17 17 17 17 17 17 17 17 17 18 18 18 18 18 18 18 18 18 19 20 20 21 21 22 22 23 24 24 25 26 26 26 27 27 27 28 28 28 28 29 29 30 31 31 32 32 33 33 34 35 35 35 36 36 37 37 37 37 37
16 16 17 19 19 20 20 20 20 20 20 19 19 19 18 17 17 17 18 18 18 17 17 17 17 17 17 17 17 17 17 17 17 16 16 17 18 18 18 19 19 19 19 19 19 20 21 22 22 23 23 24 24 25 25 26 27 27 28 28 29 29 30 30 30 31 31 32 33 33 34 34 35 35 36 36 37 38 38 39 39 39 40 40 40
19 19 19 20 21 22 21 21 21 20 20 20 20 19 18 17 17 17 17 17 17 17 16 16 17 17 17 17 17 17 17 16 16 16 16 17 17 18 18 19 19 20 21 20 20 21 22 23 23 24 24 25 26 26 27 27 28 28 29 29 30 31 31 32 32 33 33 34 35 35 35 35 36 36 37 37 38 38 39 40 40 41 41 41 42
19 20 21 22 23 23 22 22 21 20 21 21 21 19 19 18 18 17 17 17 16 16 15 15 16 16 16 15 16 16 16 16 16 16 17 17 18 18 19 20 20 21 21 21 21 22 23 24 25 25 26 26 27 28 28 29 29 30 31 31 32 32 33 33 34 34 35 35 36 37 37 37 37 38 38 38 39 39 40 40 41 41 42 42 43
18 19 20 22 24 24 24 23 22 22 22 22 21 20 19 19 18 18 18 17 16 16 16 16 16 16 15 15 16 16 16 17 17 18 18 19 20 20 20 21 22 22 23 23 23 23 24 25 26 26 26 27 28 29 29 30 30 31 31 32 32 33 34 34 35 35 35 36 37 38 38 38 38 38 39 39 40 41 42 42 42 43 43 43 43
16 17 18 21 23 24 24 24 23 23 23 22 22 21 20 19 18 18 18 17 17 17 17 17 17 17 16 17 17 18 18 18 19 19 20 20 21 21 22 22 23 23 24 24 24 25 26 27 27 28 28 29 30 30 31 31 32 32 33 33 34 34 35 35 36 36 36 37 38 38 39 39 39 38 39 40 42 42 43 43 43 44 44 44 45
17 17 17 18 20 22 23 23 23 23 23 22 22 21 20 20 20 19 18 18 18 18 18 18 18 18 18 18 18 18 19 19 20 20 20 20 21 21 22 22 23 24 24 25 25 26 27 28 29 29 30 31 31 32 32 33 33 34 34 35 35 36 36 37 37 37 38 39 39 40 41 41 41 40 40 42 43 43 44 45 45 46 46 46 47
20 20 18 17 18 19 21 22 23 22 22 22 21 20 20 20 20 19 19 19 19 19 19 19 18 18 19 19 19 19 20 20 20 20 20 20 21 21 22 22 23 24 25 25 26 27 29 29 30 30 30 31 31 32 33 33 33 34 34 35 35 36 37 37 38 38 38 39 39 41 42 42 42 42 43 44 45 46 47 47 48 48 49 50 50
23 22 20 19 18 18 19 20 20 21 21 20 20 20 19 19 19 19 19 19 19 20 20 20 19 19 20 20 20 20 20 20 20 20 20 21 21 22 23 23 24 25 25 26 27 28 29 29 29 29 30 30 30 31 32 32 33 34 34 35 35 36 37 38 39 39 39 39 40 42 43 43 44 44 45 46 47 48 49 50 51 51 51 52 52
23 23 21 20 20 20 20 20 20 20 20 19 19 19 19 19 19 19 19 20 20 20 20 20 20 20 20 20 20 21 21 21 21 21 22 22 23 24 24 25 25 25 26 26 27 28 28 28 28 28 29 29 30 31 32 33 34 35 35 36 37 38 39 40 40 40 41 43 44 45 46 47 47 48 48 48 49 49 50 50 51 51 51 51 51
23 23 22 22 22 22 22 21 21 21 20 19 19 19 19 19 19 20 20 20 20 20 20 21 20 20 20 20 20 21 21 22 22 22 23 24 24 25 26 26 25 25 26 27 27 28 28 28 28 29 29 30 31 32 32 33 34 36 37 38 39 40 41 42 42 44 45 47 48 48 49 50 50 50 49 49 48 49 49 49 49 49 49 48 48
23 23 23 24 24 24 24 23 22 22 21 20 20 20 20 20 21 21 21 21 21 21 21 21 21 21 20 20 21 21 22 22 23 23 24 24 25 25 26 26 25 25 26 26 27 27 28 28 29 30 30 31 32 33 34 35 36 37 39 41 42 43 44 45 46 48 49 50 50 50 51 50 50 49 49 48 47 47 47 47 47 47 46 46 46
23 23 24 25 25 25 25 24 24 23 22 22 21 21 21 21 21 21 21 21 21 21 21 21 21 21 21 21 21 21 22 22 23 24 24 25 25 25 26 26 26 26 27 28 28 28 29 30 30 31 32 33 34 35 37 38 40 41 43 45 46 47 48 49 50 51 51 51 51 51 50 50 49 48 47 46 46 46 45 45 45 45 46 45 45
24 25 25 25 26 25 25 25 24 24 23 23 22 22 21 21 21 21 21 21 21 21 21 21 21 21 21 21 21 22 22 23 24 24 25 25 25 26 26 27 27 27 28 29 30 30 31 32 33 34 35 37 38 39 41 42 44 46 47 49 49 50 51 51 51 51 51 51 50 50 49 49 48 47 46 45 44 44 44 44 44 45 45 45 45
25 26 26 26 26 26 26 25 24 24 23 23 22 22 22 21 21 21 21 21 21 21 21 21 21 21 22 22 22 23 23 23 24 25 25 25 26 26 27 28 28 28 29 30 31 32 33 34 36 37 38 40 42 43 44 46 47 49 49 50 51 51 51 51 51 51 51 50 49 48 47 47 46 46 45 44 44 43 43 44 44 44 45 45 44
26 27 27 27 27 26 25 24 24 23 22 22 21 21 21 21 21 21 20 20 20 20 21 21 22 22 23 23 23 24 24 24 24 25 25 26 26 27 28 28 29 30 31 32 33 34 36 37 38 40 41 43 44 46 47 48 49 49 49 49 49 49 48 49 49 49 48 47 46 45 45 44 44 44 43 43 43 43 43 43 44 44 44 44 44
26 27 27 28 27 26 25 24 23 22 21 21 21 20 20 20 20 20 20 20 20 20 21 22 22 23 23 23 23 23 23 24 24 25 25 26 27 28 29 30 30 31 33 34 35 37 38 39 41 42 43 45 46 46 47 48 47 47 47 46 45 44 44 44 44 44 43 43 43 43 43 43 42 42 42 42 42 42 42 42 42 43 43 43 43
Wind_Direction
208 208 206 207 210 211 215 217 216 213 208 208 210 208 207 206 207 210 213 214 212 210 211 210 211 215 216 216 217 221 227 229 233 237 240 242 241 240 241 241 243 245 246 249 250 250 251 251 251 251 250 250 251 253 257 261 262 264 266 268 270 273 276 280 283 285 285 287 289 291 292 295 298 300 304 307 307 308 311 313 313 315 319 322 323
208 209 209 210 213 214 217 220 222 222 218 217 218 218 217 214 212 212 213 218 219 216 215 213 214 216 218 222 223 224 229 232 235 238 241 245 246 244 244 246 248 248 249 251 254 256 257 258 259 257 256 256 256 257 260 264 267 268 270 272 275 277 279 282 285 287 288 289 291 292 293 297 299 301 305 307 307 309 311 312 314 317 319 320 320
211 212 212 212 215 216 217 219 221 223 223 223 224 227 230 227 223 220 218 220 221 222 224 222 220 221 222 225 227 231 236 238 240 241 241 242 244 245 246 248 251 252 253 254 255 257 259 260 262 262 261 259 258 259 261 264 269 271 273 277 277 279 282 284 287 289 291 292 294 295 297 300 302 304 307 308 308 309 310 312 315 316 315 318 321
216 218 219 218 218 218 218 219 222 223 223 224 225 228 235 234 230 227 227 227 225 223 227 230 229 229 230 230 231 234 238 240 241 241 244 246 246 247 249 251 255 256 257 258 257 259 261 261 263 264 264 263 260 261 262 264 268 271 274 277 278 280 282 285 288 291 292 294 296 296 298 301 303 305 307 308 308 309 312 313 314 314 317 322 324
221 223 223 223 223 222 221 222 224 225 225 226 226 225 231 236 234 230 230 234 236 231 229 233 236 235 235 235 236 238 239 241 243 242 244 248 250 254 256 256 259 261 262 264 265 265 266 268 270 271 271 270 266 264 264 266 269 273 275 277 279 281 283 286 290 291 293 295 295 297 299 302 303 305 307 308 309 311 312 313 313 315 319 322 323
222 225 225 225 226 226 225 225 227 228 229 231 231 229 229 234 236 234 231 233 241 244 239 236 237 238 239 240 240 243 243 243 245 245 247 248 248 253 257 257 260 262 265 267 269 272 273 273 275 277 277 277 273 270 269 270 273 275 278 280 281 283 285 288 290 291 294 296 297 300 302 303 304 305 306 307 308 310 310 310 312 316 318 318 321
224 227 227 227 229 229 229 230 231 232 232 232 234 234 233 234 236 236 234 233 238 245 247 244 241 240 240 243 243 244 244 245 246 247 250 252 249 247 249 252 257 261 265 268 270 272 274 275 277 277 276 275 275 275 275 275 277 278 279 282 284 286 288 290 293 296 298 300 302 304 303 303 303 304 305 306 307 308 307 307 310 314 315 315 317
228 229 231 230 230 232 233 233 233 234 235 234 234 235 235 237 239 238 237 237 238 240 243 245 247 245 242 242 245 247 247 247 248 247 248 252 255 254 252 250 252 259 263 267 271 275 278 281 282 279 278 278 280 282 283 283 285 286 286 287 289 291 293 296 298 301 303 304 305 304 303 303 303 303 305 305 305 306 305 306 310 312 313 314 317
232 233 235 234 233 233 234 234 234 235 236 236 235 237 238 239 241 241 240 241 239 238 239 242 248 254 252 246 245 251 255 252 249 247 246 250 256 259 258 252 249 255 264 269 273 276 279 280 279 278 282 285 285 283 284 286 288 289 291 292 293 295 296 299 301 301 302 303 303 303 302 302 302 302 303 305 306 306 304 305 309 311 313 314 316
232 233 236 238 238 236 235 235 235 235 236 235 235 238 241 240 240 242 244 244 241 239 240 242 247 254 259 256 249 251 257 256 254 251 248 251 257 261 261 257 252 256 264 269 271 273 273 275 277 279 281 282 280 279 280 284 285 286 289 290 291 294 295 296 298 298 299 299 299 299 299 299 299 299 301 304 303 302 303 307 311 313 314 314 316
232 233 235 238 240 240 240 238 237 237 237 236 235 234 236 237 238 241 243 242 242 243 244 244 245 248 254 258 256 252 252 254 256 256 253 252 255 259 263 263 260 260 260 261 265 268 268 271 274 276 275 273 275 278 279 281 282 283 285 286 287 288 289 291 292 293 294 294 294 295 295 296 297 298 300 300 299 300 303 306 309 311 313 313 316
232 234 235 238 239 241 242 242 240 239 238 238 236 233 233 235 237 239 240 241 243 245 246 245 245 246 249 252 254 251 250 250 253 256 257 256 255 257 261 264 266 266 265 263 265 264 265 268 270 272 275 276 277 277 278 282 284 285 285 284 283 284 285 285 287 288 289 289 289 291 293 294 296 297 298 298 298 300 302 304 307 309 311 312 314
233 236 237 238 239 240 241 242 242 241 240 239 238 237 237 238 239 240 240 242 244 245 246 246 246 247 247 247 248 248 249 250 251 252 255 257 258 258 260 262 265 267 268 269 269 267 265 266 266 269 275 279 281 281 282 282 283 285 286 285 285 286 286 286 286 287 288 288 288 290 292 293 293 294 296 297 298 300 302 304 306 306 307 309 310
234 238 239 239 239 241 242 241 241 241 241 241 240 240 240 239 240 241 240 240 242 243 245 246 246 246 245 245 245 247 249 250 251 252 254 256 259 260 259 260 261 263 265 266 267 268 268 268 268 268 269 270 274 279 281 281 282 284 285 285 286 287 287 287 289 289 290 290 291 291 292 293 293 294 297 298 298 300 302 303 304 304 306 307 308
234 237 239 239 239 241 244 243 241 241 242 244 243 242 242 241 239 240 240 239 240 241 242 243 244 243 243 244 245 245 248 251 252 253 255 256 258 258 258 258 259 260 263 263 261 261 263 265 266 264 262 264 269 273 277 280 283 284 283 284 285 285 286 287 287 287 288 289 290 291 292 293 294 295 297 297 298 300 301 302 303 305 306 305 308
235 237 238 239 240 242 245 247 246 245 245 246 245 244 244 243 241 240 240 240 241 242 240 239 239 238 239 242 245 245 246 250 253 253 254 255 257 257 257 257 257 257 258 261 261 260 259 259 258 259 261 266 269 271 274 277 280 281 282 283 284 284 284 284 283 282 284 285 286 289 292 294 295 297 298 299 300 301 303 304 306 306 304 304 307
237 239 240 242 243 243 245 248 249 249 248 248 247 246 245 244 243 242 242 241 241 243 242 240 238 237 238 241 245 247 247 249 252 252 253 256 257 258 258 257 256 255 254 256 261 262 261 259 258 259 262 265 267 269 273 276 278 281 282 282 283 284 284 283 283 285 286 283 283 285 288 290 292 293 294 296 297 299 302 304 304 302 301 302 305
238 240 241 242 244 244 243 244 246 248 247 247 247 247 246 245 244 244 246 245 244 244 245 245 242 240 242 243 245 248 249 250 253 253 254 255 256 258 259 257 256 255 255 256 258 260 259 259 260 261 261 263 266 268 270 273 275 279 280 281 282 283 284 284 286 288 287 285 284 285 285 285 285 286 287 288 290 292 295 299 300 300 300 302 305
238 239 239 240 242 242 240 240 242 243 243 245 246 247 249 249 248 248 250 251 249 247 248 249 245 243 244 245 245 247 248 250 252 253 254 254 253 255 256 257 258 257 256 256 257 259 260 262 264 263 260 260 264 267 269 272 275 277 280 282 284 285 285 287 288 288 287 287 287 287 287 286 286 287 287 287 288 290 292 295 299 301 302 303 304
238 239 238 237 236 237 238 239 239 239 239 241 244 247 250 250 250 251 251 252 252 251 250 250 248 248 249 247 246 247 248 250 252 254 255 253 251 252 254 257 260 260 258 257 258 259 261 263 265 264 260 259 265 269 272 275 277 278 279 281 283 284 286 287 287 288 289 290 290 289 290 289 289 290 290 290 292 293 293 295 297 299 302 305 304
238 237 235 233 231 230 232 233 231 228 229 233 235 236 238 239 242 247 250 251 251 251 250 249 249 248 248 246 247 249 250 252 254 255 257 255 251 251 253 255 258 261 262 263 263 265 267 268 270 270 264 261 264 268 271 274 276 277 278 278 280 281 283 285 286 287 289 288 288 288 288 288 289 290 291 291 291 292 292 293 295 296 300 305 306
229 230 228 226 223 219 219 222 223 221 222 225 225 224 228 233 236 240 245 246 244 242 246 250 250 247 244 242 245 250 252 252 251 251 252 254 252 252 254 256 259 263 267 270 271 272 274 275 276 276 270 265 265 269 272 275 276 276 276 276 276 277 279 282 283 285 285 284 283 283 284 286 288 289 290 290 291 292 292 293 295 296 298 301 303
223 223 224 220 213 210 212 215 220 225 230 232 230 228 232 235 233 232 234 237 237 235 234 236 241 247 244 239 240 247 250 249 246 245 247 250 252 254 255 257 259 262 267 272 274 278 281 281 277 273 268 267 270 274 276 277 277 276 275 275 275 277 279 281 282 283 283 283 283 284 285 287 289 291 292 293 294 294 294 294 295 296 297 298 299
220 218 219 214 208 208 210 211 217 227 234 235 230 229 231 229 226 225 224 225 230 232 230 229 235 246 245 237 237 244 245 241 239 239 239 239 241 246 250 254 257 259 262 266 270 276 280 280 276 272 269 269 273 276 278 281 281 279 277 276 278 279 280 281 283 285 286 287 287 288 288 290 292 294 296 297 298 298 298 297 297 297 297 298 300
212 212 215 214 211 211 211 211 216 222 224 223 223 224 224 225 225 226 225 225 225 225 224 225 229 233 232 227 228 230 228 225 225 227 230 232 235 241 245 249 253 256 258 262 267 273 278 281 283 283 280 279 279 280 280 281 281 280 278 278 279 280 280 281 283 285 286 286 287 287 288 289 290 291 293 294 294 294 294 295 295 296 297 299 302
205 203 205 208 208 207 204 207 213 214 213 218 223 224 221 220 223 224 224 226 227 224 222 220 222 224 222 220 223 226 226 226 227 229 230 230 231 236 240 242 246 253 259 266 272 277 282 285 285 285 283 281 281 280 279 279 278 277 276 276 277 279 280 280 282 283 283 283 284 284 284 284 285 285 286 287 287 288 288 289 290 291 292 294 295
203 199 195 196 199 198 195 199 205 205 205 212 220 220 216 215 219 223 225 226 223 219 218 216 218 222 221 218 222 227 225 223 224 225 224 222 224 232 239 245 252 260 266 272 277 280 283 284 284 284 283 282 281 281 281 280 279 278 277 277 278 280 281 281 282 282 283 283 283 283 283 283 284 284 284 284 285 285 286 286 287 288 289 290 291
198 199 198 196 194 192 191 194 200 200 200 205 209 210 209 210 215 220 222 221 214 208 205 197 193 200 203 202 207 212 208 207 214 218 222 228 235 242 248 253 259 265 270 275 278 281 283 284 284 284 283 283 283 283 282 282 280 280 280 280 281 283 283 284 284 285 285 285 285 285 285 286 286 286 286 286 287 287 288 288 289 290 291 291 292
195 195 197 196 194 193 195 198 201 199 196 198 200 200 200 202 204 205 207 206 206 206 205 200 197 200 205 210 212 212 212 217 223 227 232 238 244 250 257 263 268 273 277 280 282 284 285 285 285 285 285 284 285 285 285 285 284 284 284 285 286 287 288 287 287 287 287 288 288 289 289 290 291 291 291 291 292 292 292 292 293 293 293 294 295
198 197 198 198 197 199 201 203 203 201 198 199 199 197 197 198 198 199 200 201 203 204 206 209 211 213 217 223 224 224 225 229 234 241 246 251 257 262 267 271 275 277 280 283 284 285 286 286 287 287 287 288 288 288 289 290 291 292 292 292 292 293 293 293 292 292 292 293 293 294 295 296 296 297 297 298 298 298 297 297 297 297 298 298 298
208 206 204 203 204 207 207 207 207 207 205 206 205 202 201 202 201 202 204 206 208 210 212 215 219 222 227 234 238 241 245 249 253 258 260 264 268 272 275 277 279 280 282 283 284 284 285 286 287 288 289 291 293 294 294 295 296 296 296 297 297 297 297 297 296 296 296 296 297 298 299 299 300 300 300 300 300 300 300 300 300 301 301 301 301
218 217 215 213 214 216 216 214 214 213 211 213 215 215 214 214 213 212 214 217 219 221 223 227 231 235 239 244 249 254 258 261 264 267 269 271 273 274 276 278 279 280 281 282 283 284 286 287 288 290 290 292 293 293 294 295 295 295 295 296 297 297 297 297 297 297 296 296 296 297 297 298 298 299 299 299 300 300 300 300 300 300 301 301 301
222 224 224 223 224 225 226 225 224 222 220 220 222 223 224 225 225 226 227 229 230 232 234 237 240 244 247 251 255 258 261 264 266 268 270 272 274 275 276 276 277 278 280 280 281 283 284 285 287 288 288 289 289 289 290 290 290 291 292 292 293 294 295 296 296 297 297 297 297 298 298 298 298 297 298 298 298 299 299 299 299 299 299 299 300
225 227 228 230 232 232 234 236 236 235 233 231 231 231 232 233 235 236 238 240 241 242 244 246 248 250 252 255 258 261 263 266 268 270 271 273 275 276 277 276 276 276 276 277 277 278 278 279 280 281 283 284 285 286 287 287 288 289 290 290 291 292 292 293 294 294 295 295 296 297 297 298 298 298 299 299 299 299 299 299 299 299 299 298 298
229 230 230 232 234 235 236 238 241 242 242 242 241 241 241 240 241 242 244 247 249 250 252 255 257 259 261 262 263 264 265 266 267 268 268 269 269 269 270 269 269 269 269 270 272 274 275 276 277 278 280 281 282 284 285 286 288 289 289 291 292 292 292 292 293 293 294 294 295 295 296 297 298 299 299 300 300 300 300 300 300 300 300 300 300
236 235 235 235 236 236 236 237 240 242 244 246 247 247 247 245 244 245 247 249 250 251 252 254 256 258 260 261 261 261 262 262 261 261 260 261 262 263 263 264 264 264 265 266 269 273 275 277 279 280 281 282 283 284 285 286 287 288 289 291 292 292 293 294 294 294 295 295 295 296 297 297 298 298 298 299 299 300 300 300 301 301 301 301 301
240 238 238 239 241 242 241 240 241 241 242 244 245 246 247 248 248 248 248 249 250 251 251 251 253 254 254 255 255 256 257 257 258 257 256 258 260 261 262 264 265 266 267 268 270 273 275 277 279 281 283 284 285 286 287 289 290 290 292 292 293 293 294 295 295 296 296 296 296 296 297 297 298 298 298 298 298 298 298 298 299 299 300 300 300
243 242 240 240 242 245 245 243 241 240 241 242 244 245 246 247 248 249 250 250 249 249 248 247 248 250 250 251 252 254 254 255 257 258 259 261 264 266 268 270 271 272 273 274 274 275 277 278 280 281 283 284 286 287 288 289 291 291 292 293 293 294 294 294 295 295 295 295 295 296 296 297 297 297 298 298 298 298 298 298 299 299 299 299 299
242 240 240 239 238 240 241 240 239 239 241 243 245 245 245 247 248 250 251 252 250 248 247 245 246 247 248 248 250 253 255 257 259 261 263 266 268 270 272 274 275 277 278 278 279 280 280 281 282 283 284 285 286 287 288 289 289 290 290 290 290 291 291 292 292 293 293 293 293 294 295 295 296 297 298 298 298 298 298 299 299 299 299 300 300
249 243 239 238 237 238 238 238 238 238 240 243 244 244 245 247 248 249 251 251 249 248 247 246 247 248 249 250 253 257 260 263 264 266 267 268 270 272 273 274 276 277 278 279 280 281 282 282 283 284 285 286 286 287 288 288 289 289 289 289 290 290 290 291 291 292 292 292 293 294 294 295 296 297 297 297 297 297 298 299 299 299 299 300 300
253 249 243 239 238 238 237 237 238 239 240 242 244 245 246 247 248 249 249 249 249 248 249 250 251 253 255 257 259 261 264 265 266 268 269 270 271 272 273 274 276 277 278 280 281 282 282 283 284 285 286 287 287 288 288 288 288 289 289 289 289 290 290 291 291 292 292 292 293 294 295 295 296 297 296 296 297 298 298 298 298 299 299 299 299
252 253 247 242 240 238 236 236 237 239 241 243 245 246 247 248 248 248 248 248 249 249 250 253 256 258 261 262 263 263 264 265 266 267 268 269 270 271 272 273 274 275 277 279 280 280 281 282 283 284 284 285 285 285 286 286 286 286 286 287 287 288 288 288 288 289 290 292 293 294 293 294 295 296 296 297 297 297 297 297 297 298 298 298 298
248 249 246 243 241 238 236 236 237 238 241 243 245 246 246 246 246 246 246 247 249 250 252 254 256 257 260 262 262 263 264 264 265 266 267 268 269 270 271 271 272 274 276 276 277 277 278 279 280 281 282 282 283 284 284 285 286 286 287 287 287 288 288 288 289 291 293 293 293 292 293 294 295 295 296 296 296 296 296 296 296 296 297 297 297
246 246 244 241 239 238 236 236 236 238 240 242 244 245 245 244 245 245 245 247 249 250 252 254 255 256 257 259 261 262 263 264 265 266 267 267 268 269 270 271 273 274 276 276 276 276 278 279 280 281 282 282 283 284 285 286 286 287 288 289 289 289 290 291 294 295 295 294 293 294 295 296 296 296 296 296 296 296 296 296 296 296 296 296 296
246 245 243 239 237 236 236 236 236 238 239 240 242 243 244 246 247 247 248 249 250 252 253 255 255 256 256 256 258 261 262 264 265 266 267 269 270 271 273 274 275 276 276 277 278 280 281 281 282 282 283 283 284 285 285 286 287 288 289 289 290 291 293 294 296 296 295 295 295 296 296 296 297 297 297 297 296 296 296 296 296 296 295 295 295
249 247 243 240 237 235 235 237 237 238 239 240 241 242 244 245 246 247 248 249 251 252 253 254 255 256 257 257 259 260 262 264 266 268 270 272 274 275 277 278 279 280 280 280 281 283 283 283 284 284 285 285 286 287 288 289 290 291 292 292 293 294 296 297 296 295 295 296 296 296 297 297 297 297 297 297 296 296 296 295 295 295 295 295 295
252 249 244 241 238 236 235 236 237 237 238 239 241 243 244 244 245 246 247 248 249 251 253 254 255 257 259 260 262 264 266 268 271 273 275 276 278 279 281 282 283 283 284 284 285 285 286 286 287 287 288 289 290 291 292 293 294 295 295 295 296 297 297 297 297 296 297 297 297 297 297 297 297 297 296 296 296 296 295 295 295 296 296 297 297
251 248 244 240 238 236 235 235 235 236 237 238 239 241 242 243 244 246 246 248 250 252 254 256 259 261 263 266 268 270 272 274 276 277 278 279 280 281 282 283 284 285 286 287 288 288 289 290 290 291 292 293 294 295 296 296 297 297 298 298 298 298 298 297 297 298 298 298 298 298 298 297 297 297 296 296 295 295 295 295 295 296 297 297 298
248 246 242 239 236 234 233 233 234 234 236 237 238 239 240 241 243 245 247 249 252 254 257 260 264 266 269 271 273 274 276 277 277 279 280 281 282 283 284 285 287 287 288 289 291 291 292 293 294 295 296 296 297 297 298 298 298 298 299 299 299 299 299 299 298 298 298 298 298 298 298 297 297 297 296 296 295 295 295 295 295 295 295 296 296
246 244 240 237 235 233 232 232 232 233 234 235 236 237 239 241 243 245 248 250 253 257 260 264 267 269 271 273 274 276 277 277 278 280 281 283 284 285 287 288 289 290 291 292 293 294 295 295 296 297 297 298 298 298 298 298 298 298 298 299 299 299 298 298 298 298 298 298 298 298 297 297 297 296 296 296 295 295 294 294 293 293 293 293 293
243 241 238 235 233 231 229 229 230 230 231 233 234 236 239 241 244 247 250 253 256 259 262 265 267 269 271 273 274 276 277 279 280 282 283 285 286 287 288 290 291 291 292 293 294 295 296 297 297 298 298 298 298 298 298 298 298 298 298 298 299 298 298 298 298 298 298 298 298 298 298 297 296 296 295 295 294 294 293 293 292 292 291 291 291
Height
3223 3224 3225 3226 3227 3229 3230 3231 3232 3233 3235 3236 3237 3238 3238 3239 3240 3241 3242 3243 3244 3245 3246 3246 3247 3248 3248 3249 3250 3250 3251 3252 3252 3253 3254 3254 3255 3255 3256 3256 3257 3257 3258 3258 3259 3259 3260 3260 3260 3261 3261 3261 3261 3261 3261 3261 3261 3261 3261 3261 3261 3260 3260 3260 3260 3260 3259 3259 3258 3258 3257 3257 3256 3255 3254 3254 3252 3251 3251 3250 3248 3247 3246 3245 3244
3221 3223 3224 3225 3227 3228 3229 3230 3231 3233 3234 3235 3236 3237 3238 3239 3240 3241 3242 3242 3243 3244 3245 3245 3246 3247 3248 3248 3249 3250 3250 3251 3252 3252 3253 3253 3254 3255 3255 3255 3256 3256 3257 3257 3257 3258 3258 3259 3259 3259 3260 3260 3260 3260 3260 3260 3260 3260 3260 3260 3260 3259 3259 3259 3259 3258 3258 3258 3257 3256 3255 3255 3254 3253 3253 3252 3251 3250 3249 3248 3247 3246 3245 3244 3243
3220 3222 3223 3225 3226 3227 3228 3229 3230 3232 3233 3234 3235 3236 3237 3238 3239 3240 3241 3241 3242 3243 3244 3244 3245 3246 3247 3247 3248 3249 3250 3250 3251 3251 3252 3252 3253 3253 3254 3254 3255 3255 3256 3256 3256 3257 3257 3257 3258 3258 3258 3258 3259 3259 3259 3259 3259 3259 3259 3259 3259 3258 3258 3258 3257 3257 3257 3256 3256 3255 3254 3253 3253 3252 3251 3250 3249 3248 3248 3247 3246 3245 3244 3242 3241
3219 3220 3222 3223 3225 3226 3227 3228 3229 3230 3232 3233 3234 3235 3236 3236 3237 3238 3239 3240 3241 3242 3243 3243 3244 3245 3246 3246 3247 3248 3249 3249 3250 3251 3251 3251 3252 3252 3253 3253 3254 3254 3255 3255 3255 3256 3256 3256 3256 3256 3257 3257 3257 3257 3258 3258 3258 3258 3258 3258 3258 3257 3257 3256 3256 3255 3255 3255 3254 3253 3252 3252 3251 3250 3249 3248 3247 3246 3246 3245 3244 3243 3242 3241 3240
3218 3219 3220 3222 3223 3225 3226 3227 3228 3229 3230 3231 3233 3234 3234 3235 3236 3237 3238 3238 3239 3240 3241 3242 3243 3244 3245 3245 3246 3247 3248 3248 3249 3249 3250 3250 3251 3251 3252 3252 3253 3253 3254 3254 3254 3255 3255 3255 3255 3255 3256 3256 3256 3256 3256 3256 3256 3256 3256 3256 3256 3256 3256 3255 3254 3254 3253 3253 3252 3251 3251 3250 3249 3248 3247 3246 3245 3244 3243 3243 3242 3241 3240 3240 3239
3216 3217 3219 3220 3221 3223 3225 3226 3227 3228 3229 3230 3232 3233 3233 3234 3235 3236 3237 3237 3238 3238 3239 3240 3242 3242 3243 3244 3245 3245 3246 3247 3248 3248 3249 3249 3250 3250 3251 3251 3252 3252 3253 3253 3254 3254 3254 3254 3254 3254 3255 3255 3255 3255 3255 3255 3255 3255 3255 3255 3255 3254 3254 3253 3253 3252 3252 3251 3250 3250 3249 3248 3247 3246 3245 3245 3244 3243 3242 3241 3240 3239 3238 3238 3237
3215 3216 3217 3219 3220 3221 3223 3224 3226 3227 3228 3229 3230 3231 3232 3233 3233 3234 3235 3236 3237 3238 3238 3239 3240 3241 3241 3242 3243 3243 3244 3245 3246 3247 3248 3248 3248 3249 3250 3250 3251 3251 3252 3252 3253 3253 3253 3253 3253 3253 3253 3254 3254 3254 3254 3254 3254 3254 3254 3253 3253 3253 3252 3252 3251 3251 3250 3249 3249 3248 3247 3246 3246 3245 3244 3243 3242 3241 3240 3239 3238 3238 3237 3236 3235
3213 3215 3216 3217 3218 3219 3221 3222 3224 3225 3226 3227 3229 3230 3231 3232 3232 3233 3234 3235 3236 3237 3237 3238 3238 3239 3240 3240 3241 3241 3242 3243 3245 3246 3246 3246 3247 3249 3249 3249 3249 3250 3251 3251 3251 3252 3252 3252 3252 3252 3252 3252 3252 3253 3253 3253 3253 3253 3252 3252 3252 3251 3251 3250 3250 3249 3249 3248 3247 3247 3246 3245 3244 3243 3242 3242 3241 3240 3239 3237 3237 3236 3235 3234 3233
3211 3213 3214 3215 3216 3217 3219 3220 3222 3223 3224 3225 3227 3228 3229 3230 3231 3231 3232 3233 3235 3235 3236 3237 3237 3237 3238 3238 3239 3240 3241 3242 3243 3244 3244 3245 3246 3247 3248 3248 3248 3248 3249 3250 3250 3251 3251 3251 3251 3250 3250 3251 3251 3251 3251 3251 3251 3251 3251 3251 3250 3250 3250 3249 3249 3248 3247 3247 3246 3245 3244 3243 3243 3242 3241 3240 3239 3238 3237 3236 3236 3235 3233 3232 3232
3209 3210 3211 3212 3213 3215 3216 3217 3219 3220 3221 3223 3224 3225 3227 3228 3229 3229 3230 3231 3233 3233 3234 3235 3236 3236 3236 3237 3238 3239 3240 3240 3241 3242 3243 3244 3245 3245 3246 3247 3248 3247 3248 3249 3249 3249 3250 3250 3249 3249 3249 3249 3249 3249 3249 3249 3249 3249 3249 3249 3249 3248 3248 3247 3247 3246 3246 3245 3244 3243 3243 3242 3241 3240 3240 3239 3238 3237 3236 3235 3234 3233 3232 3231 3230
3206 3207 3209 3210 3210 3212 3213 3214 3216 3217 3218 3219 3221 3222 3223 3225 3226 3227 3228 3229 3230 3232 3233 3233 3234 3235 3235 3235 3236 3237 3237 3238 3239 3240 3241 3242 3243 3244 3245 3246 3247 3246 3246 3247 3248 3248 3248 3248 3248 3248 3247 3247 3247 3247 3247 3247 3248 3248 3247 3247 3247 3247 3246 3246 3245 3245 3244 3243 3242 3242 3241 3241 3240 3239 3239 3238 3237 3236 3235 3234 3232 3232 3230 3229 3228
3203 3204 3206 3206 3207 3208 3209 3211 3213 3214 3215 3216 3217 3218 3220 3222 3223 3225 3226 3228 3229 3230 3231 3231 3232 3233 3234 3234 3235 3234 3234 3236 3237 3238 3239 3240 3241 3242 3243 3244 3245 3245 3245 3245 3246 3246 3247 3247 3247 3247 3245 3244 3245 3246 3245 3245 3246 3246 3245 3245 3245 3245 3244 3244 3243 3243 3242 3241 3240 3240 3240 3239 3238 3238 3238 3237 3235 3234 3234 3233 3231 3230 3229 3228 3226
3200 3201 3202 3203 3204 3205 3206 3206 3208 3209 3210 3211 3212 3214 3216 3219 3220 3222 3224 3225 3226 3227 3228 3229 3230 3231 3232 3233 3232 3231 3231 3234 3235 3236 3237 3238 3239 3240 3241 3242 3243 3243 3243 3243 3244 3244 3245 3245 3245 3246 3244 3243 3243 3243 3243 3243 3243 3244 3244 3243 3243 3243 3242 3242 3241 3241 3240 3239 3238 3238 3238 3237 3236 3236 3236 3235 3234 3233 3232 3231 3230 3229 3228 3227 3225
3197 3198 3199 3200 3201 3201 3201 3201 3203 3204 3205 3206 3207 3210 3213 3215 3218 3219 3220 3222 3223 3224 3224 3225 3226 3227 3228 3229 3228 3228 3230 3231 3232 3233 3235 3236 3237 3238 3239 3240 3241 3241 3241 3242 3242 3242 3242 3242 3243 3244 3243 3241 3241 3241 3241 3241 3241 3241 3242 3241 3241 3241 3240 3240 3239 3239 3238 3237 3236 3236 3236 3235 3234 3234 3234 3233 3232 3230 3230 3229 3228 3226 3225 3224 3222
3194 3195 3196 3196 3197 3198 3197 3197 3199 3200 3202 3203 3205 3208 3211 3213 3215 3216 3217 3218 3219 3219 3220 3222 3222 3223 3225 3225 3224 3225 3228 3229 3229 3231 3232 3233 3234 3235 3236 3238 3238 3238 3239 3239 3239 3238 3239 3240 3240 3240 3239 3239 3240 3240 3240 3240 3239 3239 3240 3240 3239 3239 3239 3238 3237 3236 3236 3235 3234 3234 3234 3233 3233 3232 3232 3231 3229 3228 3227 3225 3225 3223 3221 3220 3219
3190 3191 3192 3193 3194 3195 3195 3196 3198 3199 3201 3202 3204 3206 3208 3210 3212 3213 3213 3214 3214 3215 3216 3216 3217 3218 3220 3220 3220 3223 3226 3226 3227 3228 3229 3230 3232 3233 3234 3235 3236 3236 3237 3236 3234 3234 3235 3236 3236 3236 3236 3237 3238 3238 3238 3238 3237 3237 3237 3237 3237 3237 3236 3236 3235 3234 3234 3234 3233 3232 3232 3231 3231 3230 3229 3228 3227 3225 3223 3222 3221 3220 3218 3216 3215
3187 3188 3189 3191 3192 3193 3195 3197 3198 3200 3201 3202 3202 3204 3205 3207 3208 3209 3210 3210 3210 3210 3209 3209 3212 3215 3216 3215 3217 3221 3223 3224 3224 3225 3226 3227 3229 3230 3231 3232 3232 3233 3233 3232 3232 3232 3233 3234 3233 3233 3234 3235 3235 3235 3236 3235 3235 3235 3234 3234 3234 3234 3234 3233 3232 3232 3232 3231 3230 3230 3229 3229 3228 3227 3226 3225 3224 3222 3219 3218 3218 3217 3214 3212 3211
3184 3185 3187 3188 3189 3190 3192 3195 3197 3198 3199 3200 3200 3200 3201 3203 3204 3205 3206 3207 3207 3206 3205 3207 3211 3214 3213 3212 3215 3218 3220 3221 3221 3222 3224 3225 3226 3227 3228 3229 3229 3229 3229 3229 3230 3230 3231 3231 3231 3231 3231 3232 3232 3233 3233 3233 3232 3232 3231 3231 3231 3231 3231 3230 3230 3229 3229 3228 3228 3227 3227 3226 3225 3225 3224 3222 3221 3219 3217 3215 3214 3213 3211 3210 3209
3181 3182 3184 3186 3187 3188 3189 3191 3193 3194 3195 3196 3196 3197 3198 3200 3200 3201 3202 3203 3203 3202 3202 3205 3208 3209 3209 3211 3214 3215 3216 3217 3218 3219 3221 3222 3223 3224 3225 3225 3226 3226 3226 3225 3226 3227 3228 3228 3228 3228 3228 3229 3229 3230 3230 3230 3229 3229 3229 3228 3228 3228 3227 3227 3226 3226 3225 3225 3224 3224 3223 3222 3222 3222 3221 3219 3218 3216 3214 3213 3211 3210 3208 3208 3207
3178 3180 3181 3183 3184 3185 3186 3188 3189 3190 3190 3191 3193 3194 3196 3197 3197 3198 3198 3199 3199 3199 3199 3202 3204 3205 3207 3209 3211 3212 3213 3214 3215 3217 3218 3219 3220 3221 3221 3222 3222 3222 3221 3222 3224 3225 3224 3223 3224 3225 3226 3226 3227 3227 3227 3227 3226 3226 3225 3225 3225 3224 3224 3223 3223 3222 3222 3221 3221 3220 3219 3218 3218 3218 3217 3215 3214 3212 3211 3209 3208 3206 3206 3205 3204
3176 3177 3179 3180 3182 3183 3183 3184 3185 3186 3186 3187 3189 3192 3193 3194 3195 3195 3196 3196 3196 3196 3196 3199 3201 3202 3203 3205 3206 3208 3210 3211 3212 3214 3215 3216 3217 3218 3218 3219 3219 3218 3218 3219 3221 3221 3220 3221 3222 3224 3224 3224 3224 3224 3224 3224 3223 3222 3222 3222 3221 3221 3220 3220 3219 3219 3218 3218 3217 3216 3215 3214 3214 3214 3213 3212 3210 3209 3207 3205 3203 3203 3203 3203 3201
3173 3174 3175 3176 3178 3179 3179 3180 3181 3182 3184 3185 3187 3189 3191 3192 3193 3193 3193 3193 3193 3193 3194 3196 3198 3198 3199 3201 3203 3205 3206 3208 3210 3211 3212 3213 3214 3215 3215 3216 3216 3216 3215 3216 3217 3218 3218 3220 3221 3222 3222 3222 3221 3221 3221 3220 3220 3219 3218 3218 3218 3217 3217 3216 3216 3215 3215 3214 3213 3212 3211 3210 3210 3209 3209 3208 3207 3205 3203 3201 3200 3198 3199 3200 3199
3169 3171 3172 3173 3174 3175 3176 3178 3179 3180 3182 3183 3184 3186 3188 3189 3190 3190 3190 3190 3191 3191 3192 3193 3194 3195 3196 3198 3200 3202 3203 3205 3207 3208 3209 3211 3212 3212 3213 3213 3213 3214 3214 3214 3214 3215 3216 3217 3218 3218 3219 3219 3219 3218 3218 3217 3217 3216 3215 3214 3214 3214 3214 3213 3212 3211 3211 3210 3210 3209 3208 3207 3206 3205 3205 3204 3203 3202 3200 3199 3198 3196 3194 3195 3195
3167 3169 3171 3172 3172 3173 3174 3175 3177 3178 3180 3181 3182 3184 3185 3186 3187 3188 3188 3189 3189 3190 3190 3191 3193 3193 3195 3197 3199 3200 3201 3203 3204 3205 3207 3208 3209 3210 3210 3210 3211 3212 3212 3212 3213 3213 3213 3213 3214 3214 3215 3215 3215 3215 3214 3214 3213 3212 3212 3211 3211 3210 3210 3209 3208 3207 3207 3206 3206 3206 3205 3204 3203 3202 3201 3201 3199 3198 3197 3196 3195 3194 3192 3191 3191
3166 3167 3169 3170 3171 3172 3172 3173 3175 3176 3178 3179 3180 3181 3182 3184 3185 3186 3186 3187 3187 3188 3188 3190 3191 3192 3194 3195 3197 3199 3200 3201 3202 3203 3204 3205 3206 3207 3208 3208 3209 3209 3210 3210 3211 3211 3211 3210 3210 3210 3211 3211 3211 3211 3211 3210 3210 3209 3209 3208 3207 3207 3207 3206 3205 3204 3203 3203 3202 3202 3201 3201 3200 3199 3198 3198 3196 3195 3194 3193 3192 3191 3190 3189 3188
3164 3166 3167 3168 3169 3170 3171 3172 3173 3174 3176 3177 3178 3179 3180 3181 3182 3183 3184 3185 3186 3187 3187 3189 3190 3192 3193 3194 3196 3197 3199 3200 3200 3201 3201 3202 3203 3204 3205 3206 3206 3207 3207 3208 3208 3208 3208 3208 3207 3207 3208 3208 3208 3208 3207 3207 3206 3206 3205 3205 3204 3204 3203 3202 3201 3200 3200 3199 3199 3198 3198 3197 3197 3196 3195 3194 3193 3192 3191 3190 3189 3188 3187 3187 3186
3163 3164 3166 3167 3167 3168 3169 3171 3172 3172 3174 3176 3177 3178 3179 3180 3181 3182 3182 3183 3184 3186 3186 3187 3189 3191 3192 3193 3194 3195 3196 3197 3198 3199 3199 3200 3201 3202 3203 3203 3204 3204 3204 3205 3205 3205 3205 3205 3205 3205 3205 3204 3204 3204 3204 3203 3203 3202 3202 3201 3200 3200 3199 3198 3197 3197 3196 3195 3195 3194 3194 3193 3192 3192 3191 3190 3189 3188 3187 3186 3185 3184 3183 3183 3182
3162 3163 3165 3166 3167 3168 3169 3170 3171 3171 3172 3174 3175 3176 3177 3179 3180 3181 3181 3181 3183 3184 3185 3186 3187 3189 3191 3192 3193 3194 3195 3196 3196 3197 3198 3199 3200 3200 3201 3201 3202 3202 3202 3202 3202 3202 3202 3202 3202 3202 3201 3201 3201 3200 3200 3200 3199 3199 3198 3197 3196 3196 3195 3194 3193 3192 3192 3191 3191 3190 3190 3189 3188 3187 3187 3186 3185 3184 3183 3182 3181 3180 3179 3178 3177
3162 3163 3164 3165 3166 3167 3168 3169 3170 3170 3172 3173 3174 3175 3176 3178 3179 3180 3180 3180 3181 3183 3184 3185 3186 3188 3189 3191 3191 3192 3193 3194 3195 3195 3196 3197 3198 3198 3199 3199 3199 3200 3200 3200 3200 3199 3199 3199 3198 3198 3198 3197 3197 3197 3196 3196 3196 3195 3195 3194 3193 3192 3192 3191 3190 3189 3188 3188 3187 3186 3186 3185 3184 3183 3182 3181 3181 3179 3178 3177 3177 3176 3175 3174 3173
3160 3161 3162 3164 3165 3166 3167 3168 3168 3169 3171 3172 3173 3174 3176 3176 3177 3178 3179 3180 3181 3182 3183 3184 3185 3186 3188 3189 3190 3191 3192 3192 3193 3193 3194 3194 3195 3196 3196 3196 3196 3197 3196 3197 3196 3196 3196 3195 3195 3194 3194 3194 3194 3193 3192 3192 3192 3191 3191 3191 3190 3189 3188 3188 3187 3186 3185 3184 3183 3183 3182 3181 3180 3180 3179 3178 3177 3176 3175 3174 3173 3172 3171 3170 3169
3159 3160 3161 3162 3163 3164 3165 3166 3167 3168 3169 3170 3171 3173 3174 3175 3176 3177 3178 3179 3180 3181 3182 3183 3184 3185 3186 3186 3187 3188 3189 3189 3190 3191 3191 3191 3192 3192 3193 3193 3193 3193 3193 3193 3193 3193 3192 3192 3191 3191 3191 3190 3190 3190 3189 3189 3188 3188 3187 3187 3186 3186 3185 3184 3184 3183 3182 3181 3180 3179 3179 3178 3177 3176 3175 3174 3173 3172 3171 3170 3169 3168 3167 3166 3165
3158 3159 3160 3161 3161 3162 3163 3164 3165 3166 3167 3168 3169 3170 3171 3172 3173 3174 3175 3177 3178 3179 3180 3181 3182 3183 3183 3184 3185 3185 3186 3187 3187 3188 3188 3188 3189 3189 3190 3190 3190 3190 3190 3190 3190 3189 3189 3189 3188 3188 3188 3188 3187 3187 3187 3186 3186 3185 3185 3184 3183 3183 3182 3181 3180 3180 3179 3178 3177 3176 3175 3174 3173 3173 3172 3170 3170 3169 3168 3166 3165 3164 3163 3162 3161
3156 3157 3158 3159 3160 3160 3161 3162 3163 3164 3165 3166 3167 3168 3169 3170 3171 3172 3173 3174 3175 3176 3177 3178 3179 3180 3181 3181 3182 3183 3183 3184 3184 3185 3185 3185 3186 3186 3186 3186 3186 3186 3187 3187 3187 3186 3186 3186 3186 3186 3185 3185 3185 3185 3184 3184 3183 3183 3182 3181 3181 3180 3179 3178 3177 3176 3175 3174 3173 3172 3171 3170 3170 3169 3168 3167 3166 3165 3164 3163 3161 3160 3159 3158 3157
3154 3155 3156 3157 3158 3159 3160 3160 3161 3162 3163 3164 3165 3166 3167 3168 3169 3170 3171 3171 3172 3173 3174 3175 3176 3177 3178 3178 3179 3179 3180 3181 3181 3182 3182 3182 3182 3183 3183 3183 3183 3183 3183 3184 3183 3183 3183 3183 3183 3183 3183 3183 3182 3182 3181 3181 3180 3180 3179 3178 3177 3177 3176 3175 3174 3173 3172 3171 3169 3168 3168 3166 3165 3165 3164 3163 3162 3161 3159 3158 3157 3156 3155 3154 3153
3152 3153 3154 3154 3155 3156 3157 3158 3159 3160 3161 3162 3163 3164 3165 3166 3167 3167 3168 3169 3170 3170 3171 3172 3173 3173 3174 3175 3176 3176 3177 3177 3178 3178 3179 3179 3179 3180 3180 3180 3181 3181 3181 3181 3181 3181 3180 3180 3180 3180 3180 3180 3179 3179 3178 3178 3177 3176 3176 3175 3174 3173 3172 3172 3171 3170 3169 3167 3166 3165 3164 3163 3162 3161 3159 3158 3157 3156 3155 3153 3152 3151 3150 3149 3148
3151 3151 3151 3152 3152 3153 3154 3155 3156 3158 3159 3160 3161 3162 3163 3164 3165 3165 3166 3166 3167 3168 3169 3169 3170 3171 3172 3172 3173 3174 3174 3175 3176 3176 3176 3177 3177 3177 3177 3178 3178 3178 3178 3178 3178 3178 3177 3177 3177 3177 3177 3176 3176 3175 3175 3174 3174 3173 3172 3171 3170 3169 3168 3168 3167 3166 3165 3164 3162 3161 3160 3159 3157 3156 3155 3154 3153 3151 3150 3149 3147 3146 3145 3143 3142
3148 3148 3149 3149 3150 3150 3151 3152 3153 3155 3156 3157 3158 3159 3160 3161 3162 3162 3163 3164 3164 3165 3166 3166 3167 3168 3169 3170 3170 3171 3172 3172 3173 3173 3174 3174 3174 3174 3174 3175 3175 3175 3175 3175 3175 3175 3174 3174 3174 3173 3173 3173 3172 3172 3171 3170 3170 3169 3168 3167 3166 3165 3164 3163 3162 3161 3160 3159 3157 3156 3155 3154 3153 3152 3151 3150 3149 3147 3146 3144 3143 3142 3140 3139 3137
3145 3146 3146 3147 3147 3148 3149 3150 3151 3152 3153 3153 3155 3156 3157 3158 3159 3160 3160 3161 3162 3162 3163 3164 3164 3165 3166 3167 3167 3168 3169 3169 3170 3170 3171 3171 3171 3171 3171 3171 3171 3171 3171 3172 3172 3172 3171 3171 3170 3170 3170 3169 3168 3168 3167 3166 3166 3165 3164 3163 3162 3161 3160 3159 3158 3157 3156 3154 3153 3151 3151 3150 3149 3147 3146 3145 3143 3142 3141 3139 3138 3136 3135 3134 3132
3143 3143 3144 3144 3145 3145 3146 3147 3148 3149 3150 3151 3152 3154 3155 3156 3157 3157 3158 3159 3159 3160 3161 3161 3162 3163 3164 3165 3165 3165 3166 3166 3167 3167 3167 3167 3167 3168 3168 3167 3167 3167 3167 3168 3168 3168 3167 3167 3166 3166 3166 3165 3165 3164 3163 3163 3162 3161 3160 3159 3158 3157 3156 3155 3154 3152 3151 3150 3148 3147 3146 3145 3144 3143 3141 3140 3138 3136 3135 3134 3132 3131 3129 3128 3126
3141 3141 3141 3142 3142 3143 3144 3145 3146 3146 3147 3148 3149 3151 3152 3153 3154 3155 3155 3156 3157 3158 3158 3159 3160 3160 3161 3162 3162 3163 3163 3164 3164 3164 3164 3164 3164 3164 3164 3164 3164 3164 3164 3164 3164 3163 3163 3163 3162 3162 3162 3161 3160 3160 3159 3158 3157 3156 3155 3154 3153 3152 3151 3150 3149 3148 3146 3145 3143 3142 3141 3139 3139 3138 3136 3134 3132 3131 3129 3128 3126 3125 3123 3122 3120
3140 3140 3139 3139 3140 3140 3141 3142 3143 3143 3144 3145 3146 3148 3149 3150 3151 3152 3153 3154 3154 3155 3156 3156 3157 3158 3158 3159 3159 3160 3160 3161 3161 3161 3161 3161 3161 3161 3161 3161 3161 3160 3160 3160 3160 3159 3159 3158 3158 3158 3157 3156 3156 3155 3154 3153 3152 3151 3150 3149 3148 3147 3146 3145 3144 3142 3141 3140 3138 3137 3135 3134 3133 3132 3131 3129 3127 3125 3124 3122 3120 3119 3117 3115 3113
3137 3138 3138 3137 3137 3138 3139 3139 3140 3141 3142 3143 3144 3145 3146 3147 3148 3149 3150 3151 3152 3152 3153 3153 3154 3155 3155 3155 3156 3157 3157 3157 3158 3158 3158 3158 3158 3158 3158 3158 3157 3157 3157 3157 3157 3156 3155 3155 3154 3154 3153 3152 3152 3151 3150 3149 3148 3147 3146 3145 3144 3143 3141 3140 3139 3138 3137 3136 3134 3132 3130 3129 3127 3126 3125 3123 3121 3119 3117 3116 3114 3112 3110 3108 3106
3134 3135 3135 3135 3135 3135 3136 3137 3137 3138 3139 3140 3141 3142 3143 3145 3145 3146 3147 3148 3149 3149 3150 3150 3151 3152 3152 3152 3152 3153 3153 3154 3154 3154 3155 3155 3155 3155 3155 3154 3154 3154 3154 3154 3153 3153 3152 3151 3151 3150 3149 3148 3148 3146 3145 3144 3143 3142 3141 3140 3139 3137 3136 3134 3133 3132 3132 3130 3128 3126 3124 3123 3122 3120 3119 3117 3115 3113 3111 3109 3107 3105 3103 3101 3099
3130 3131 3132 3132 3132 3133 3133 3134 3135 3135 3136 3138 3139 3140 3141 3142 3142 3143 3144 3145 3145 3146 3147 3147 3148 3148 3149 3149 3149 3149 3150 3150 3150 3151 3151 3151 3151 3151 3151 3151 3151 3151 3150 3150 3149 3148 3148 3147 3146 3146 3145 3144 3143 3142 3141 3139 3138 3137 3135 3134 3133 3131 3130 3128 3127 3126 3125 3123 3121 3119 3118 3116 3115 3113 3112 3110 3107 3105 3104 3102 3100 3098 3096 3094 3092
3127 3128 3128 3129 3129 3130 3131 3131 3132 3133 3134 3135 3136 3137 3138 3139 3139 3140 3141 3142 3142 3143 3143 3144 3144 3145 3145 3146 3146 3146 3146 3146 3146 3147 3147 3147 3147 3146 3146 3146 3146 3146 3145 3144 3144 3143 3143 3142 3141 3140 3140 3139 3137 3136 3135 3134 3133 3131 3130 3128 3127 3125 3124 3123 3122 3120 3118 3115 3114 3112 3110 3109 3107 3105 3103 3102 3100 3098 3096 3094 3092 3090 3088 3086 3085
3123 3124 3125 3125 3126 3127 3128 3128 3129 3130 3131 3132 3133 3134 3135 3136 3136 3137 3138 3138 3139 3140 3140 3141 3141 3141 3142 3142 3143 3143 3143 3143 3142 3142 3142 3142 3142 3141 3141 3141 3141 3140 3140 3139 3139 3138 3137 3136 3136 3135 3134 3133 3132 3131 3129 3128 3127 3125 3123 3122 3121 3119 3118 3116 3114 3112 3110 3108 3107 3105 3103 3101 3099 3097 3095 3093 3091 3089 3087 3086 3084 3082 3080 3079 3077
3120 3121 3122 3122 3123 3124 3125 3126 3127 3127 3128 3129 3130 3131 3132 3133 3133 3134 3135 3135 3136 3136 3137 3137 3138 3138 3138 3139 3139 3139 3139 3139 3138 3138 3138 3137 3137 3136 3136 3136 3135 3134 3134 3133 3133 3132 3131 3130 3129 3128 3127 3126 3125 3124 3122 3121 3120 3118 3116 3114 3114 3112 3110 3108 3106 3104 3102 3100 3098 3096 3094 3093 3091 3089 3087 3085 3083 3081 3079 3078 3076 3074 3072 3071 3069
3116 3117 3118 3119 3120 3121 3122 3123 3124 3124 3125 3126 3127 3128 3129 3130 3130 3131 3132 3132 3133 3133 3133 3133 3134 3134 3134 3135 3135 3135 3135 3134 3134 3133 3133 3133 3132 3132 3131 3130 3130 3129 3128 3127 3127 3126 3125 3124 3123 3121 3120 3119 3118 3116 3115 3113 3112 3110 3108 3106 3105 3103 3101 3099 3097 3095 3094 3092 3090 3088 3086 3084 3082 3081 3079 3077 3075 3074 3072 3070 3068 3067 3065 3063 3062
3113 3114 3115 3115 3116 3117 3118 3119 3120 3121 3122 3123 3124 3125 3126 3127 3127 3128 3129 3129 3130 3130 3130 3130 3130 3130 3130 3130 3130 3130 3130 3130 3129 3129 3129 3128 3127 3127 3126 3125 3125 3124 3123 3122 3121 3120 3119 3117 3116 3115 3114 3112 3111 3109 3107 3106 3104 3102 3100 3099 3097 3095 3093 3091 3089 3087 3085 3084 3082 3080 3078 3077 3075 3073 3072 3070 3068 3067 3065 3064 3062 3060 3058 3057 3055
3109 3110 3111 3112 3113 3114 3115 3116 3117 3118 3119 3120 3121 3122 3123 3123 3124 3125 3126 3126 3126 3127 3127 3127 3127 3127 3127 3127 3126 3126 3126 3126 3125 3125 3124 3123 3123 3122 3121 3121 3120 3119 3118 3117 3116 3114 3113 3112 3111 3109 3108 3106 3104 3103 3101 3099 3098 3096 3094 3092 3090 3088 3086 3084 3082 3080 3078 3077 3075 3074 3072 3070 3069 3067 3065 3064 3062 3060 3059 3057 3055 3054 3052 3050 3049
3106 3107 3108 3109 3110 3111 3112 3113 3114 3115 3116 3117 3118 3119 3119 3120 3121 3122 3122 3123 3123 3124 3124 3124 3124 3123 3123 3123 3123 3123 3122 3122 3121 3121 3120 3119 3119 3118 3117 3116 3115 3114 3113 3112 3111 3109 3108 3106 3105 3103 3102 3100 3098 3096 3094 3092 3091 3089 3087 3086 3084 3081 3080 3078 3076 3074 3073 3071 3069 3067 3066 3064 3063 3061 3059 3058 3056 3054 3052 3051 3049 3048 3046 3045 3043